TITAN 34D TRANSTAGE DEB, 22818

Orbit data source: Space-Track

TITAN 34D TRANSTAGE DEB, 22818 is space debris in HEO originally from a launch on Fri, 02 Sep 1988 UTC launched from the Air Force Eastern Test Range (AFETR). Debris objects in space refer to the collection of defunct objects orbiting the Earth. Examples of debris include non-operational satellites, rocket bodies, and fragments generated from explosions, collisions, or faulty payload assembly.

Loading next visibility...
Identifier
22818, 1988-077F
Orbit
HEO
Country
Flag of USUS
Related business
Manufacturer
Unknown
Mission
Spacecraft
Bus & Motor
Unknown
Mass
Unknown
Launch date (UTC)
1988-09-02 (38 years ago)
Launch vehicle
Unknown
Launch site
Air Force Eastern Test Range (AFETR)
Object type
Payload
Rocket body
Debris
Shape & HBR
Unknown shape, 0.4 m
Radar Cross Section
Medium (>0.1 m² and <1 m²)

Expand to show TLE details & history
Last TLE update: 2 days ago

TLE from 2 days ago
0 TITAN 34D TRANSTAGE DEB
1 22818U 88077F   26171.06882792  .00000226  00000-0  93184-3 0  9998
2 22818  26.7430 181.6977 6958201 162.4344 245.8972  2.59918326 64270
Epoch: 2026-06-20T01:39Z
TLE epoch observation values (Epoch: 2026-06-20T01:39:06.732Z)
Latitude
-0.00007°
Longitude
-111.33498°
Altitude
27,828.129 km
Speed
2.338 km/s
True Right ascension
12h 06m 55s
True Declination
0° 00' 00"
Sunlit
Object was in daylight at epoch
Visualization orbit readout
Latitude
Unknown
Longitude
Unknown
Altitude
Unknown
Speed
Unknown
Apparent Right ascension
Unknown
Apparent Declination
Unknown
Sunlit
N/A
Visualization observer readout
Local Sidereal Time
00:29:10
Azimuth
Unknown
Elevation
Unknown
Doppler factor
Unknown
Orbital elements
Apogee altitude
31,520.997 km
Perigee altitude
419.845 km
Semi-major axis
22,348.558 km
Eccentricity
0.69582
Inclination
26.743°
RAAN
181.6977°
Arg. of periapsis
162.4344°
True anomaly
197.60909°
Mean anomaly
245.8972°
Eccentric anomaly
220.17674°
Mean motion
0.64963 °/min
Orbital period
554.16 mins
BSTAR
0.00093184
Loading maneuver chart data...
Computing Atmospheric mass density...

Documentation

Showing up to 5 results
|